www.pogodaiklimat.ru

Погода и климат >> Архив погоды >> Индонезия >> Серанг


ПОГОДА в Серанге

  • Прогноз погоды в Серанге
  • Монитор погоды в Серанге

АРХИВ ПОГОДЫ в Серанге

Время (UTC), дата Ветер
(напр.,м/с)
 
Видим.   Явления Облачность Т
(С)
Тd
(С)
f
(%)
Тe
(С)
Тes
(С)
Комфортность P
(гПа)
Po
(гПа)
Тmin
(С)
Tmax
(С)
R
(мм)
R24
(мм)
S
(см)
03 18.03 З 2 12 км 5/4 500 м
[Sc As trans Ci fib]
+31.2 +23.0 62 +41 +51 опасность
перегрева
1010.9 1007.9
06 18.03 З 4 10 км в посл. час дождь 9/6 500 м
[Cu med, cong As op Ci fib]
+30.6 +23.2 65 +41 +45 опасность
перегрева
1008.4 1005.4 2
09 18.03 З 2 8000 м в посл. час дождь 9/6 500 м
[Cu med, cong As op Ci fib]
+30.4 +23.6 67 +41 +43 опасность
перегрева
1006.7 1003.7 0.0
12 18.03 штиль 0 5000 м мгла {дождь} 9/6 500 м
[Sc As op Ci fib]
+27.2 +23.6 81 +37 +37 очень
душно
1008.2 1005.2 +32.6 0.0
15 18.03 штиль 0 5000 м мгла 8/6 500 м
[Sc As op Ci fib]
+27.0 +23.7 82 +37 +37 очень
душно
1009.8 1006.8
18 18.03 штиль 0 5000 м мгла 9/5 500 м
[Sc As op Ci fib]
+27.0 +22.8 78 +36 +36 очень
душно
1008.9 1005.9
21 18.03 СЗ 3 5000 м мгла 8/5 500 м
[Sc As op Ci fib]
+26.0 +23.8 88 +36 +36 очень
душно
1007.6 1004.6
00 19.03 З 4 9000 м 8/4 500 м
[Sc As op Ci fib]
+26.0 +22.7 82 +34 +35 очень
душно
1009.0 1006.0 +24.0 0.0
03 19.03 З 2 5000 м слаб. дождь 10/8 500 м
[Sc As op Ci fib]
+27.2 +24.2 84 +38 +40 очень
душно
1010.9 1007.9 0.0
06 19.03 ЮЗ 4 5000 м дождь 10/9 500 м
[Sc As op]
+24.0 +23.4 96 +32 +32 очень
душно
1009.2 1006.2 24
09 19.03 З 5 9000 м в посл. час дождь 9/5 500 м
[Sc Ac trans Ci fib]
+26.8 +23.8 84 +37 +38 очень
душно
1006.0 1003.0 2
12 19.03 З 3 10 км {дождь} 8/4 500 м
[Sc As op Ci fib]
+25.6 +23.1 86 +34 +34 очень
душно
1007.8 1004.8 +27.8 2
15 19.03 З 2 8000 м 9/5 500 м
[Sc As op Ci fib]
+25.2 +23.3 89 +34 +34 очень
душно
1008.9 1005.9
18 19.03 штиль 0 6000 м 9/5 500 м
[Sc As op Ci fib]
+24.8 +23.1 90 +33 +33 очень
душно
1008.2 1005.2
21 19.03 штиль 0 6000 м 8/5 500 м
[Sc As op Ci fib]
+24.4 +23.3 94 +33 +33 очень
душно
1007.2 1004.2
00 20.03 штиль 0 10 км 8/5 500 м
[Sc As op Ci fib]
+25.4 +24.0 92 +35 +36 очень
душно
1008.4 1005.4 +23.4 26
03 20.03 штиль 0 6000 м 8/5 500 м
[Cu med, cong As op Ci fib]
+29.2 +24.3 75 +41 +49 опасность
перегрева
1009.9 1006.9
06 20.03 З 4 6000 м 9/6 500 м
[Cu med, cong As op Ci fib]
+32.2 +23.8 61 +44 +47 опасность
перегрева
1007.4 1004.4
09 20.03 ЮЗ 4 8000 м 8/4 500 м
[Cu med, cong As op Ci fib]
+31.6 +24.0 64 +43 +45 опасность
перегрева
1005.4 1002.4
12 20.03 З 1 10 км 5/4 500 м
[Sc As trans Ci fib]
+28.0 +24.2 80 +39 +39 очень
душно
1007.6 1004.6 +32.6
15 20.03 ЮЗ 1 10 км 5/3 500 м
[Sc As trans Ci fib]
+26.8 +24.1 85 +37 +37 очень
душно
1009.2 1006.2
18 20.03 штиль 0 10 км 4/1 500 м
[Sc As trans Ci fib]
+26.2 +24.3 89 +36 +36 очень
душно
1008.2 1005.2
21 20.03 штиль 0 10 км 4/1 500 м
[Sc As trans Ci fib]
+26.0 +24.1 89 +36 +36 очень
душно
1007.0 1004.0
00 21.03 штиль 0 15 км 5/3 500 м
[Sc As trans Ci fib]
+27.0 +24.0 84 +37 +39 очень
душно
1008.4 1005.4 +24.8
03 21.03 штиль 0 50 км гроза, ливневой дождь ?/? +27.0 +23.7 82 +37 +37 очень
душно
1010.5 1007.5 1
06 21.03 СЗ 3 5000 м в посл. час дождь {гроза} 9/8 500 м
[Cu med, cong As op Ci fib]
+30.2 +24.8 73 +43 +46 опасность
перегрева
1008.3 1005.3 0.0
09 21.03 З 1 8000 м 10/6 500 м
[Cu med, cong As op Ci fib]
+30.2 +24.2 70 +42 +43 опасность
перегрева
1006.7 1003.7
12 21.03 штиль 0 9000 м 10/5 500 м
[Sc As op Ci fib]
+27.6 +24.3 82 +39 +39 очень
душно
1008.6 1005.6 +32.0
15 21.03 штиль 0 9000 м 9/5 500 м
[Sc As op Ci fib]
+26.6 +24.7 89 +38 +38 очень
душно
1009.6 1006.7
18 21.03 штиль 0 9000 м 10/5 500 м
[Sc As op Ci fib]
+26.2 +24.3 89 +36 +36 очень
душно
1009.8 1006.8
21 21.03 штиль 0 10 км 9/5 500 м
[Sc As op Ci fib]
+25.8 +24.4 92 +36 +36 очень
душно
1008.4 1005.4
00 22.03 штиль 0 10 км в посл. час гроза 8/5 450 м
[Cb cap As op Ci fib]
+25.4 +24.3 94 +35 +36 очень
душно
1009.4 1006.4 +25.0 1
03 22.03 СЗ 1 9000 м 8/5 500 м
[Cu med, cong As op Ci fib]
+31.2 +24.4 67 +43 +50 опасность
перегрева
1009.9 1006.9
06 22.03 штиль 0 9000 м 9/5 500 м
[Cu med, cong As op Ci fib]
+30.8 +24.0 67 +42 +51 опасность
перегрева
1008.4 1005.3
09 22.03 ЮЗ 3 8000 м 9/6 500 м
[Cu med, cong As op Ci fib]
+30.0 +24.6 73 +43 +44 опасность
перегрева
1006.2 1003.2
12 22.03 ЮЗ 2 6000 м 6/5 500 м
[Cu med, cong As op Ci fib]
+28.0 +24.5 81 +39 +39 очень
душно
1008.2 1005.2 +31.4
15 22.03 штиль 0 5000 м гроза, ливневой дождь 10/6 450 м
[Cb cap As op Ci fib]
+25.6 +23.7 89 +35 +35 очень
душно
1011.0 1008.0 3
18 22.03 штиль 0 5000 м в посл. час дождь {гроза} 10/6 500 м
[Sc As op Ci fib]
+25.0 +23.6 92 +34 +34 очень
душно
1009.2 1006.2 3
21 22.03 штиль 0 5000 м гроза, ливневой дождь 9/5 450 м
[Cb cap As op Ci fib]
+25.5 +24.0 91 +35 +35 очень
душно
1007.9 1004.9 0.0
00 23.03 штиль 0 5000 м слаб. дождь {гроза} 10/6 500 м
[Cu med, cong As op]
+25.8 +24.6 93 +36 +36 очень
душно
1010.0 1007.0 +25.0 0.1
03 23.03 З 2 8000 м слаб. дождь {гроза} 8/5 500 м
[Cu med, cong As op Ci fib]
+27.6 +25.4 88 +40 +47 очень
душно
1009.8 1006.8 8
06 23.03 З 4 12 км {гроза, дождь} 6/4 500 м
[Cu med, cong As op Ci fib]
+31.4 +24.4 66 +44 +50 опасность
перегрева
1008.0 1005.0 0.0
09 23.03 ЮЗ 3 10 км 9/5 500 м
[Cu med, cong As op Ci fib]
+31.2 +24.7 68 +44 +45 опасность
перегрева
1005.8 1002.8
12 23.03 З 2 8000 м 8/5 500 м
[Sc As op Ci fib]
+28.2 +24.1 78 +39 +39 очень
душно
1007.5 1004.5 +32.2
15 23.03 ЮЗ 2 5000 м слаб. дождь 9/5 500 м
[Sc As op Ci fib]
+27.0 +25.1 89 +39 +39 очень
душно
1009.3 1006.3 0.0
18 23.03 З 2 5000 м в посл. час дождь 10/6 500 м
[Sc As op Ci fib]
+26.2 +24.8 92 +37 +37 очень
душно
1008.8 1005.8 0.6
21 23.03 З 2 5000 м слаб. дождь 10/6 500 м
[Sc As op]
+25.0 +24.2 95 +34 +34 очень
душно
1007.7 1004.7 3
00 24.03 0 н/о
03 24.03 З 2 8000 м 9/6 500 м
[Sc As op Ci fib]
+29.6 +25.0 76 +42 +47 опасность
перегрева
1009.9 1006.9
06 24.03 ЮЗ 2 10 км 8/6 500 м
[Cu med, cong As op Ci fib]
+32.3 +24.3 63 +45 +51 опасность
перегрева
1007.2 1004.2
09 24.03 ЮЗ 3 10 км 5/4 500 м
[Cu med, cong As op Ci fib]
+31.4 +24.1 65 +43 +45 опасность
перегрева
1006.3 1003.3
12 24.03 З 2 8000 м 8/5 500 м
[Sc As op Ci fib]
+27.8 +24.8 84 +40 +40 очень
душно
1007.5 1004.5 +32.8
15 24.03 ЮЗ 3 8000 м 6/4 500 м
[Sc As op Ci fib]
+27.2 +24.5 85 +38 +38 очень
душно
1009.1 1006.1
18 24.03 ЮЗ 3 7000 м 8/5 500 м
[Sc As op Ci fib]
+26.4 +23.9 86 +36 +36 очень
душно
1008.2 1005.2
21 24.03 штиль 0 5000 м слаб. дождь 9/5 500 м
[Sc As op Ci fib]
+26.2 +24.3 89 +36 +36 очень
душно
1007.6 1004.6 0.0

 

Местоположение метеостанции Серанг (Индонезия): широта -6.12 долгота 106.13 высота над уровнем моря 40 м.

В архиве по умолчанию представлена погода в Серанге за последнюю неделю. Архивные данные за месяц целиком и за предыдущие месяцы, начиная с января 2011 года, Вы можете получить, выбрав интересующий диапазон дат из раскрывающегося списка и нажав кнопку "Ввод!".


*Определитесь, кто Вы:
робот инопланетянин человек

Внимание! Время в таблицах - всемирное. Для получения местного времени необходимо прибавить поправку, которая равна 7 ч.

Смотрите также архив погоды в соседних городах и на ближайших метеорологических станциях:

Погода в Аэропорту Сукарно-Хатта (Индонезия) (58 км)
Погода в Чуруге (Индонезия) (59 км)
Погода в Джакарте (Индонезия) (78 км)
Погода в Джакарта порту (Индонезия) (82 км)
Погода в Цитеко (Индонезия) (109 км)
Погода в Танджунгкаранге (Индонезия) (155 км)
Погода в Бандунге (Индонезия) (182 км)
Погода в Сиребоне (Индонезия) (246 км)
Погода в Тегале (Индонезия) (343 км)
Погода в Чилачапе (Индонезия) (365 км)

Пояснения к столбцам:

Ветер - указаны скорость ветра в м/с - средняя за 10 мин, порывы в срок и между сроками (в фигурных скобках) и направление, откуда дует ветер: С - северный, СВ - северо-восточный, В - восточный, ЮВ - юго-восточный, Ю - южный, ЮЗ - юго-западный, З - западный, СЗ - северо-западный.
Видимость - горизонтальная дальность видимости в метрах или километрах. При видимости от 1 до 10 км при отсутствии осадков обычно наблюдается дымка, при ухудшении видимости до 1 км и менее - туман. В сухую погоду видимость может ухудшаться дымом, пылью или мглою.
Явления - указаны атмосферные явления, наблюдавшиеся в срок или в последний час перед сроком; фигурными скобками обозначены явления, наблюдавшиеся между сроками (за 1-3 часа до срока); квадратными скобками обозначены град или гололедные отложения с указанием их диаметра в мм.
Облачность - указаны через наклонную черту общая и нижняя облачность в баллах и высота нижней границы облаков в метрах; квадратными скобками обозначены формы облаков: Ci - перистые, Cs - перисто-слоистые, Cc - перисто-кучевые, Ac - высококучевые, As - высокослоистые, Sc - слоисто-кучевые, Ns - слоисто-дождевые, Cu - кучевые, Cb - кучево-дождевые. Подробнее классификацию облаков см. в Атласе облаков (PDF).
T - Температура воздуха - температура, измеренная на высоте 2 м над землей.
Td - Температура точки росы - температура, при понижении до которой содержащийся в воздухе водяной пар достигнет насыщения.
f - Относительная влажность воздуха - влажноcть воздуха, измеренная на высоте 2 м над землей.
Te - Эффективная температура - температура, которую ощущает одетый по сезону человек в тени. Характеристика душности погоды. При расчете учитывается влияние влажности воздуха и скорости ветра на теплоощущения человека.
Tes - Эффективная температура на солнце - температура, которую ощущает человек, с поправкой на солнечный нагрев. Характеристика знойности погоды. Зависит от высоты солнца над горизонтом, облачности и скорости ветра. Ночью, в пасмурную погоду, а также при ветре 12 м/с и более поправка равна нулю.
P - Атмосферное давление - приведенное к уровню моря атмосферное давление.
Po - Атмосферное давление - измеренное на уровне метеостанции атмосферное давление.
Tmin - Минимальная температура - минимум температуры воздуха на высоте 2 м над землей.
Tmax - Максимальная температура - максимум температуры воздуха на высоте 2 м над землей.
R - Количество осадков - Количество выпавших осадков за период времени, мм. При наведении курсора мыши на число - период времени, за который выпало указанное количество осадков.
R24 - Количество осадков - Количество выпавших осадков за 24 часа, мм.
S - Снежный покров - Высота снежного покрова, см. При наведении курсора мыши на число - состояние снежного покрова и степень покрытия местности в баллах.